Home > Weather > Saalfeld/Saale > Past weeks

Flag for Germany Past Weather in Saalfeld/Saale, Thuringia, Germany — Yesterday and Last 2 Weeks

Now
54 °F

Clear.


Feels Like: 52 °F
Forecast: 56 / 72 °F
Wind: 6 mph from Southwest

Location: Erfurt-Bindersleben

Current Time: Jun 27, 2016 at 2:25:41 AM

Latest Report: Jun 27, 2016 at 1:50 AM


Visibility: 10 mi

Pressure: 30.09 "Hg

Humidity: 82%

Dew Point: 48 °F

Location of Saalfeld/SaaleLocation

Past Weather in Saalfeld/Saale — Graph

°F

Saalfeld/Saale Temperature Yesterday

Maximum temperature yesterday: 70 °F (at 5:50 PM)
Minimum temperature yesterday: 54 °F (at 4:50 AM)
Average temperature yesterday: 61 °F

High & Low Weather Summary for the Past Weeks

 TemperatureHumidityPressure
High91 °F (Jun 24, 3:50 PM)100% (Jun 12, 5:20 PM)30.24 "Hg (Jun 12, 5:20 PM)
Low46 °F (Jun 20, 5:20 AM)31% (Jun 23, 4:20 PM)29.50 "Hg (Jun 14, 5:20 PM)
Average63 °F76%29.91 "Hg
* Reported Jun 12 1:20 AM — Jun 27 1:20 AM, Saalfeld/Saale, Weather by CustomWeather, © 2016

Note: Actual official high and low records may vary slightly from our data, if they occured in-between our weather recording intervals... More about our weather records

Advertising

Saalfeld/Saale Weather History for the Previous 24 Hours

Scroll right to see more
 ConditionsComfort  
Time TempWeatherWind HumidityBarometerVisibility
1:20 AM
Mon, Jun 27
54 °FClear.7 mph82%30.09 "Hg10 mi
12:50 AM54 °FClear.6 mph82%30.09 "Hg10 mi
12:20 AM54 °FClear.7 mph82%30.09 "Hg10 mi
11:50 PM
Sun, Jun 26
55 °FClear.8 mph77%30.09 "Hg10 mi
11:20 PM57 °FPassing clouds.8 mph72%30.09 "HgN/A
10:50 PM59 °FClear.8 mph68%30.07 "Hg10 mi
10:20 PM61 °FSunny.8 mph63%30.07 "Hg10 mi
9:50 PM59 °FSunny.9 mph68%30.07 "Hg10 mi
9:20 PM61 °FSunny.9 mph59%30.07 "Hg10 mi
8:50 PM64 °FSunny.9 mph56%30.07 "Hg10 mi
8:20 PM66 °FSunny.8 mph56%30.07 "Hg10 mi
7:50 PM68 °FSunny.7 mph49%30.04 "Hg10 mi
7:20 PM68 °FPassing clouds.9 mph49%30.04 "HgN/A
6:50 PM68 °FPassing clouds.9 mph49%30.04 "HgN/A
6:20 PM66 °FPassing clouds.12 mph56%30.04 "HgN/A
5:50 PM70 °FPassing clouds.8 mph50%30.04 "HgN/A
5:20 PM68 °FSunny.6 mph53%30.07 "Hg10 mi
4:50 PM66 °FSunny.9 mph56%30.07 "Hg10 mi
4:20 PM68 °FPassing clouds.9 mph53%30.07 "HgN/A
3:50 PM68 °FSunny.9 mph53%30.07 "Hg10 mi
3:20 PM66 °FSunny.8 mph56%30.07 "Hg10 mi
2:50 PM66 °FPassing clouds.8 mph52%30.07 "HgN/A
2:20 PM66 °FPassing clouds.8 mph56%30.07 "HgN/A
1:50 PM68 °FPassing clouds.8 mph56%30.07 "HgN/A
1:20 PM66 °FScattered clouds.9 mph56%30.07 "HgN/A
12:50 PM64 °FScattered clouds.9 mph60%30.07 "HgN/A
12:20 PM66 °FScattered clouds.8 mph60%30.07 "HgN/A
11:50 AM64 °FScattered clouds.12 mph60%30.07 "HgN/A
11:20 AM64 °FScattered clouds.10 mph60%30.07 "HgN/A
10:50 AM64 °FScattered clouds.13 mph60%30.07 "HgN/A
10:20 AM63 °FPassing clouds.13 mph68%30.09 "HgN/A
9:50 AM63 °FPassing clouds.14 mph64%30.09 "HgN/A
9:20 AM61 °FPassing clouds.10 mph68%30.07 "HgN/A
8:50 AM59 °FPassing clouds.9 mph72%30.07 "HgN/A
8:20 AM59 °FPassing clouds.9 mph77%30.07 "HgN/A
7:50 AM59 °FPassing clouds.12 mph77%30.07 "HgN/A
7:20 AM57 °FPassing clouds.7 mph82%30.07 "HgN/A
6:50 AM57 °FSunny.9 mph82%30.07 "Hg10 mi
6:20 AM55 °FSunny.9 mph88%30.07 "Hg10 mi
5:50 AM54 °FPassing clouds.10 mph94%30.04 "HgN/A
5:20 AM54 °FPassing clouds.10 mph94%30.04 "HgN/A
4:50 AM54 °FPassing clouds.8 mph94%30.04 "HgN/A
4:20 AM55 °FPassing clouds.9 mph94%30.01 "HgN/A
3:50 AM57 °FPassing clouds.12 mph88%30.01 "HgN/A
3:20 AM55 °FPassing clouds.9 mph94%30.01 "HgN/A
2:50 AM55 °FPassing clouds.13 mph94%30.01 "HgN/A
2:20 AM55 °FPassing clouds.14 mph94%30.01 "HgN/A
Weather by CustomWeather, © 2016

See weather overviewHow to use our weather pages